Location: Luxembourg
(49.6117°N, 6.1300°E)
Time: 06:52:56
(UTC+02:00)

Envisat - Pass Details

Date: 01 February 2019
Orbit: 764 x 766 km, 98.1° (Epoch: 23 October)

Event Time Altitude Azimuth Distance (km) Brightness Sun altitude
Rises 18:17:01 0° 138° (SE) 3,224 6.0 -7.9°
Reaches altitude 10° 18:19:28 10° 130° (SE) 2,302 5.2 -8.2°
Maximum altitude 18:24:04 36° 65° (ENE) 1,198 3.5 -9.0°
Drops below altitude 10° 18:28:42 10° 0° (N) 2,315 5.3 -9.7°
Sets 18:31:09 0° 352° (N) 3,246 6.2 -10.1°
